[[{"header":{"parameterUnit":"m.s-1","parameterCategory":1,"la1":30.2991,"la2":30.254,"lo1":-89.0895,"lo2":-89.0444,"dy":0.0017,"dx":0.0017,"nx":28,"ny":28,"refTime":"2024-06-29T03:00:00:Z","depth":0,"parameterNumber":2,"parameterNumberName":"U-component_of_WINDS"},"data":[0,0,0,0,0,0,0,0,0,0,0,0,0,0,0,0,0,0,0,0,0,0,0,0,0,0,0,0,0,0,0,0,0,0,0,0,0,0,0,0,0,0,0,0,0,0,0,0,0,0,0,0,0,0,0,0,0,0,2.6168,2.6169,0,2.6256,2.6257,2.6258,2.6213,2.6211,2.6209,2.6206,2.6303,2.6307,2.6312,0,0,0,0,0,0,0,0,0,0,0,0,0,2.5969,2.5973,2.6168,2.6169,2.617,2.6256,2.6257,2.6259,2.6214,2.6211,2.6208,2.6205,2.6301,2.6307,2.6312,0,0,0,0,0,0,0,0,0,0,0,0,0,2.6056,2.5974,2.6168,2.6158,2.6158,2.6256,2.6257,2.6259,2.6214,2.6211,2.6207,2.6204,2.6299,2.6306,2.6313,2.6428,0,0,2.6335,2.6338,0,0,0,0,0,0,0,0,2.6052,2.6064,2.6158,2.6159,2.6159,2.622,2.6222,2.6316,2.6215,2.6193,2.6206,2.6202,2.6278,2.6287,2.6311,2.6432,2.6436,2.6335,2.634,2.6343,2.6345,0,0,0,0,0,0,0,2.6046,2.606,2.6203,2.616,2.616,2.6152,2.6161,2.624,2.6255,2.6195,2.6192,2.6202,2.6278,2.6305,2.6313,2.6438,2.6335,2.6342,2.6346,2.6349,2.6662,2.6666,0,0,0,0,0,0,2.6039,2.6055,2.62,2.6206,2.6095,2.6159,2.6168,2.6204,2.6253,2.6258,2.6205,2.62,2.6294,2.6305,2.6317,2.6457,2.6343,2.6349,2.6354,2.6658,2.6663,2.6668,0,0,0,0,0,0,2.6035,2.6052,2.6197,2.613,2.6147,2.6166,2.6207,2.6208,2.6234,2.6261,2.6265,2.6229,2.6292,2.6307,2.6401,2.6459,2.6353,2.6359,2.6653,2.666,2.6665,2.6736,0,0,0,0,0,0,2.6029,2.6051,2.6092,2.6131,2.6151,2.6277,2.621,2.6212,2.6246,2.624,2.6285,2.6289,2.629,2.6391,2.6408,2.6467,2.6365,2.6648,2.6656,2.6663,2.6728,2.6743,2.6756,0,0,0,0,0,2.6022,2.6109,2.6094,2.6112,2.6202,2.628,2.6292,2.629,2.6251,2.6294,2.6313,2.6288,2.645,2.6401,2.642,2.6482,2.6645,2.6654,2.6663,2.6722,2.674,2.6756,0,0,0,0,0,0,2.6077,2.6113,2.6098,2.6199,2.6237,2.6272,2.6326,2.6309,2.636,2.6352,2.635,2.6361,2.6459,2.648,2.6424,2.6598,2.6542,2.6555,2.658,2.6598,2.6612,2.6605,2.6371,0,0,0,0,0,2.61,2.6158,2.6188,2.6274,2.6294,2.6308,2.6341,2.6337,2.6377,2.6393,2.6418,2.646,2.6521,2.6561,2.6618,2.6732,2.6743,2.6785,2.6799,2.681,2.6822,2.6888,2.6907,2.6698,2.6697,2.6697,0,0,2.615,2.6177,2.6214,2.6286,2.6315,2.6378,2.6321,2.6389,2.6437,2.6404,2.6494,2.6515,2.6562,2.6668,2.6716,2.6688,2.6883,2.6822,2.6831,2.6836,2.6899,2.6919,2.6937,2.6704,2.6703,2.6702,0,0,2.6272,2.6298,2.6374,2.6405,2.6449,2.6458,2.6477,2.6517,2.6529,2.662,2.6598,2.6656,2.676,2.6796,2.6827,2.697,2.695,2.6989,2.7062,2.7126,2.7143,2.7158,2.7211,2.7229,2.7,2.7,2.7001,0,2.6328,2.6419,2.6415,2.6486,2.6521,2.6494,2.6574,2.6604,2.6666,2.6692,2.6661,2.6793,2.6823,2.6938,2.6974,2.6999,2.7023,2.6983,2.714,2.7155,2.7169,2.7219,2.7239,2.7005,2.7004,2.7004,2.7004,0,2.6488,2.6553,2.6609,2.6669,2.671,2.6785,2.6796,2.6839,2.6833,2.6846,2.6942,2.6978,2.7043,2.7071,2.7065,2.7187,2.7169,2.7139,2.7083,2.7193,2.7241,2.726,2.7011,2.701,2.7008,2.7007,0,0,2.6643,2.6703,2.6724,2.6753,2.6803,2.6854,2.6931,2.6994,2.7032,2.7078,2.7143,2.7235,2.7208,2.7245,2.7244,2.73,2.7415,2.7264,2.7265,2.7292,2.7555,2.7578,2.76,2.7403,2.7406,2.7409,2.7552,0,2.677,2.69,2.6902,2.7023,2.7085,2.7064,2.7131,2.7171,2.7187,2.7245,2.7264,2.7329,2.7289,2.7311,2.7366,2.7389,2.7468,2.7379,2.7467,2.747,2.7455,2.7624,2.7647,2.778,2.757,2.7573,2.7576,0,2.6934,2.6985,2.7112,2.7157,2.7183,2.7243,2.7304,2.7358,2.7405,2.7414,2.7457,2.7449,2.7531,2.7473,2.7588,2.7527,2.7564,2.7582,2.7587,2.7595,2.7529,2.7638,2.7822,2.7842,2.7605,2.7602,2.76,0,2.7037,2.7137,2.7227,2.7253,2.7307,2.735,2.7375,2.7419,2.7458,2.7513,2.7539,2.7603,2.7639,2.769,2.7701,2.7657,2.7818,2.776,2.783,2.783,2.7863,2.7861,2.8056,2.7887,2.7887,2.7886,2.7886,0,2.7178,2.7257,2.7275,2.733,2.742,2.7423,2.7514,2.7536,2.7576,2.7638,2.7624,2.7684,2.7695,2.7758,2.7768,2.7863,2.7879,2.7891,2.7892,2.7892,2.7891,2.7915,2.7907,2.7891,2.789,2.7889,2.7888,0,2.7307,2.7321,2.7418,2.7463,2.7477,2.7541,2.7581,2.7636,2.7653,2.7732,2.7751,2.7778,2.7852,2.7869,2.7957,2.7964,2.8078,2.807,2.8061,2.8061,2.813,2.8124,2.8348,2.8379,2.8189,2.8191,2.8192,0,2.7395,2.7456,2.7508,2.7548,2.7576,2.764,2.7681,2.7689,2.7733,2.7794,2.7843,2.7915,2.7973,2.8094,2.8123,2.8191,2.8186,2.826,2.8196,2.8195,2.8189,2.8185,2.8193,2.8272,2.8274,2.8276,2.8277,0,2.7553,2.7558,2.7616,2.7679,2.7728,2.7778,2.7826,2.7861,2.7875,2.7926,2.8001,2.8046,2.8138,2.8211,2.8281,2.831,2.8298,2.8298,2.8318,2.8318,2.831,2.8317,2.8095,2.8292,2.8291,2.8289,2.8289,2.8288,2.7665,2.772,2.7766,2.7833,2.787,2.7916,2.7971,2.7995,2.8057,2.8131,2.8133,2.8216,2.8267,2.8359,2.8393,2.8461,2.8438,2.8467,2.8474,2.8481,2.8488,2.83,2.8474,2.8473,2.8473,2.8473,2.8472,0,2.7823,2.7852,2.7914,2.7982,2.8036,2.8019,2.8072,2.8119,2.8192,2.824,2.8298,2.8387,2.8459,2.8496,2.8569,2.8616,2.8613,2.8635,2.8632,2.8639,2.8503,2.8479,2.8637,2.8637,2.8637,2.8637,2.8637,2.8637,2.7911,2.8003,2.8015,2.8127,2.8157,2.8237,2.827,2.8314,2.8352,2.8451,2.8511,2.8534,2.858,2.8656,2.8724,2.8733,2.8761,2.8787,2.8793,2.8665,2.8648,2.8632,2.861,2.8793,2.8793,2.8924,2.8925,2.8926]},{"header":{"parameterUnit":"m.s-1","parameterCategory":1,"la1":30.2991,"la2":30.254,"lo1":-89.0895,"lo2":-89.0444,"dy":0.0017,"dx":0.0017,"nx":28,"ny":28,"refTime":"2024-06-29T03:00:00:Z","depth":0,"parameterNumber":3,"parameterNumberName":"V-component_of_WINDS"},"data":[0,0,0,0,0,0,0,0,0,0,0,0,0,0,0,0,0,0,0,0,0,0,0,0,0,0,0,0,0,0,0,0,0,0,0,0,0,0,0,0,0,0,0,0,0,0,0,0,0,0,0,0,0,0,0,0,0,0,0.9709,0.9714,0,1.0136,1.0141,1.0146,1.0194,1.019,1.0186,1.0182,1.0634,1.065,1.0666,0,0,0,0,0,0,0,0,0,0,0,0,0,0.8947,0.8961,0.9709,0.9714,0.972,1.0136,1.0141,1.0147,1.0195,1.019,1.0184,1.018,1.0629,1.0648,1.0667,0,0,0,0,0,0,0,0,0,0,0,0,0,0.9317,0.8965,0.9708,0.9793,0.9805,1.0134,1.0142,1.0149,1.0196,1.019,1.0183,1.0177,1.0623,1.0646,1.067,1.0949,0,0,1.0744,1.0754,0,0,0,0,0,0,0,0,0.9296,0.9345,0.9775,0.9788,0.9802,1.0105,1.0039,1.0418,1.0198,1.0048,1.0181,1.0174,1.0464,1.0501,1.0596,1.097,1.0989,1.0746,1.076,1.0771,1.0778,0,0,0,0,0,0,0,0.927,0.9327,0.9879,0.9782,0.9798,0.9814,0.9859,1.0111,1.0288,1.0061,1.0065,1.0114,1.0471,1.0573,1.0607,1.0996,1.0745,1.0766,1.0781,1.0791,1.1619,1.1626,0,0,0,0,0,0,0.9227,0.9305,0.9865,0.9891,0.9527,0.9833,0.9884,1.0015,1.0285,1.032,1.0119,1.0115,1.0535,1.0579,1.0623,1.0967,1.0771,1.0793,1.0807,1.1611,1.162,1.1628,0,0,0,0,0,0,0.921,0.9276,0.9848,0.96,0.9673,0.9853,1.0,1.0026,1.0128,1.0329,1.0362,1.019,1.0531,1.0589,1.0866,1.0984,1.0804,1.0826,1.1602,1.1614,1.1624,1.1657,0,0,0,0,0,0,0.9188,0.927,0.9375,0.9601,0.9686,1.008,1.0007,1.0039,1.0168,1.0166,1.0405,1.0438,1.0531,1.083,1.089,1.1014,1.0845,1.1593,1.1608,1.1621,1.1647,1.1668,1.1687,0,0,0,0,0,0.9161,0.9371,0.938,0.9448,0.9821,1.0087,1.0136,1.0234,1.0177,1.0287,1.0415,1.0431,1.0959,1.0858,1.0926,1.1059,1.1586,1.1603,1.162,1.1638,1.1664,1.1686,0,0,0,0,0,0,0.9161,0.9402,0.9415,0.9704,0.9873,1.0094,1.0235,1.0259,1.0452,1.0443,1.056,1.0614,1.0886,1.1,1.0882,1.1342,1.1268,1.1299,1.1258,1.1285,1.1304,1.1273,1.0865,0,0,0,0,0,0.9193,0.9384,0.9587,0.9822,0.9906,1.0055,1.0175,1.0234,1.0417,1.0491,1.064,1.0821,1.1027,1.1162,1.1364,1.1661,1.1715,1.1786,1.1806,1.1822,1.1849,1.2015,1.2049,1.1684,1.1684,1.1684,0,0,0.9265,0.942,0.9535,0.9826,0.9965,1.0164,1.0116,1.033,1.048,1.0526,1.0795,1.0909,1.1119,1.1407,1.1541,1.151,1.1961,1.1843,1.1854,1.1874,1.2036,1.207,1.2101,1.1696,1.1693,1.1692,0,0,0.9497,0.9632,0.9843,0.9981,1.0188,1.0286,1.0335,1.0552,1.0629,1.0899,1.0937,1.1118,1.1472,1.1619,1.174,1.2022,1.2045,1.2085,1.2192,1.2352,1.2381,1.2407,1.251,1.2545,1.211,1.2111,1.2111,0,0.9562,0.9859,0.995,1.0161,1.0289,1.0331,1.0548,1.0679,1.0944,1.1033,1.0992,1.1434,1.1579,1.1901,1.1969,1.2065,1.2129,1.2061,1.2368,1.2396,1.2422,1.2521,1.2559,1.2114,1.2114,1.2113,1.2113,0,0.9928,1.0133,1.0279,1.0527,1.0671,1.0884,1.1011,1.1146,1.1191,1.1293,1.1569,1.1741,1.1978,1.2058,1.2108,1.2389,1.2362,1.2344,1.2273,1.2459,1.2554,1.2592,1.2119,1.2118,1.2117,1.2116,0,0,1.0179,1.0469,1.0521,1.0634,1.0864,1.1027,1.1241,1.1466,1.1581,1.1761,1.1946,1.2241,1.2224,1.2361,1.2427,1.2567,1.278,1.2532,1.2539,1.2574,1.3102,1.3116,1.3159,1.2794,1.2802,1.2808,1.3085,0,1.0439,1.0817,1.0903,1.1231,1.1423,1.1464,1.1651,1.1814,1.1914,1.2094,1.2206,1.2414,1.2375,1.2457,1.2597,1.2724,1.2889,1.2705,1.2972,1.298,1.2921,1.3208,1.3226,1.3479,1.3122,1.3129,1.3133,0,1.0795,1.0976,1.132,1.1522,1.1606,1.1772,1.1985,1.2155,1.2341,1.2404,1.2553,1.2604,1.2832,1.2744,1.3061,1.2934,1.3048,1.3126,1.3138,1.3171,1.3071,1.3251,1.3563,1.3601,1.3193,1.3188,1.3184,0,1.0944,1.1275,1.1524,1.1619,1.186,1.1976,1.2083,1.2261,1.239,1.2577,1.2663,1.2875,1.2993,1.3157,1.3264,1.319,1.3573,1.3494,1.3635,1.3632,1.3718,1.3712,1.4055,1.3785,1.3784,1.3783,1.3782,0,1.1229,1.1439,1.1594,1.1748,1.1984,1.2081,1.2314,1.2422,1.2579,1.2757,1.2806,1.2973,1.3101,1.3287,1.3372,1.3622,1.3674,1.3734,1.3755,1.3732,1.3725,1.3811,1.3798,1.3794,1.3791,1.3789,1.3788,0,1.1439,1.1551,1.1824,1.2027,1.2083,1.2249,1.2425,1.2577,1.2675,1.2899,1.2957,1.3114,1.3334,1.3454,1.3732,1.3789,1.4069,1.4079,1.4005,1.4015,1.4149,1.4135,1.4563,1.4625,1.431,1.4312,1.4315,0,1.1614,1.1776,1.1994,1.2113,1.222,1.2413,1.2543,1.2644,1.2779,1.3,1.3126,1.3346,1.3529,1.3878,1.402,1.4232,1.425,1.4384,1.4283,1.4253,1.4255,1.4245,1.4263,1.4404,1.4407,1.4409,1.4411,0,1.1915,1.1961,1.2144,1.2346,1.2498,1.2664,1.2828,1.2924,1.3053,1.3202,1.3423,1.3564,1.3843,1.4064,1.4285,1.44,1.4429,1.444,1.4485,1.4465,1.4416,1.4446,1.4057,1.4432,1.443,1.4428,1.4427,1.4426,1.2116,1.226,1.2435,1.2637,1.2769,1.2921,1.3072,1.3186,1.3372,1.3604,1.3653,1.3887,1.4068,1.4368,1.4487,1.4675,1.465,1.4713,1.473,1.4745,1.4751,1.4381,1.4715,1.4715,1.4714,1.4714,1.4714,0,1.2421,1.2533,1.2717,1.2942,1.3101,1.3106,1.3287,1.3422,1.3626,1.3789,1.3965,1.422,1.4432,1.4586,1.4803,1.4923,1.4942,1.4977,1.4972,1.4998,1.476,1.4701,1.4958,1.4958,1.4958,1.4958,1.4958,1.4958,1.2598,1.2843,1.2909,1.3221,1.3333,1.3559,1.3662,1.3803,1.3933,1.4213,1.4387,1.4484,1.4645,1.4873,1.5068,1.5109,1.5188,1.5222,1.5264,1.5041,1.5015,1.499,1.4935,1.5238,1.5238,1.5487,1.5489,1.5491]}]]